Location: Agenbach
(47.2667°N, 11.4500°E)
Time: 16:59:53
(UTC+00:00)

NPP - Pass Details

Date: 07 June 2020
Orbit: 826 x 828 km, 98.7° (Epoch: 13 July)

Event Time Altitude Azimuth Distance (km) Brightness Sun altitude
Rises 01:10:59 0° 14° (NNE) 3,379 8.4 -15.1°
Reaches altitude 10° 01:13:20 10° 14° (NNE) 2,442 7.4 -14.9°
Maximum altitude 01:18:46 88° 285° (WNW) 835 3.6 -14.4°
Enters shadow 01:22:36 20° 198° (SSW) 1,827 4.8 -14.1°
